Regional Weather Roundup
Issued by NWS Sioux Falls, SD

Home | Current Version | Previous Version | Text Only | Print | Product List | Glossary On
Versions: 1 2 3 4 5 6 7 8 9 10 11 12 13 14 15 16 17 18 19 20 21 22 23 24 25 26 27 28 29 30 31 32 33 34 35 36 37 38 39 40 41 42 43 44 45 46 47 48 49 50
720
ASUS43 KFSD 031510
RWRFSD

WEATHER ROUNDUP FOR SE SOUTH DAKOTA/SW MINNESOTA/NW IOWA
NATIONAL WEATHER SERVICE SIOUX FALLS SD
900 AM CST SAT DEC 03 2016

NOTE: "FAIR" INDICATES FEW OR NO CLOUDS BELOW 12,000 FEET WITH NO
SIGNIFICANT WEATHER AND OR OBSTRUCTIONS TO VISIBILITY.


SDZ038>040-050-052>070-031600-
SOUTHEAST SOUTH DAKOTA

CITY           SKY/WX    TMP DP  RH WIND       PRES   REMARKS
BROOKINGS      CLEAR     27  24  89 SE14      30.16F WCI  16
CHAMBERLAIN    CLOUDY    31  31 100 CALM      30.10S
HURON          CLOUDY    28  26  92 S12       30.13F WCI  18
MADISON        FAIR      27  27 100 S12       30.16F WCI  16
MITCHELL       CLOUDY    28  26  92 SE9       30.15F WCI  19
SIOUX FALLS    MOSUNNY   30  28  92 SE10      30.19F WCI  21
WINNER         CLOUDY    35  28  75 S10       30.07F WCI  27
YANKTON        CLOUDY    27  25  93 SE7       30.19S WCI  19
$$

MNZ071-072-080-081-089-090-097-098-031600-
SOUTHWEST MINNESOTA

CITY           SKY/WX    TMP DP  RH WIND       PRES   REMARKS
FAIRMONT       CLOUDY    29  21  72 E5        30.28F WCI  24
JACKSON        MOSUNNY   28  21  74 SE8       30.26S WCI  20
LUVERNE        SUNNY     30  27  86 SE6       30.22F WCI  24
MARSHALL       MOSUNNY   27  20  75 SE8       30.23F WCI  19
MONTEVIDEO     CLOUDY    27  23  86 S7        30.26F WCI  19
PIPESTONE      SUNNY     27  25  93 SE8       30.19F WCI  18
REDWOOD FALLS  CLOUDY    28  19  69 E5        30.26F WCI  23
TRACY          MOSUNNY   28  22  80 SE7       30.24F WCI  20
WINDOM         PTSUNNY   28  21  74 CALM      30.24F
WORTHINGTON    SUNNY     28  25  88 SE9       30.23F WCI  19
$$

IAZ001>003-012>014-020>022-031-032-NEZ013-014-SDZ071-031600-
NORTHWEST IOWA

CITY           SKY/WX    TMP DP  RH WIND       PRES   REMARKS
CHEROKEE       SUNNY     30  29  99 CALM      30.26S
DENISON        SUNNY     28  27  93 CALM      30.26R
ESTHERVILLE    MOSUNNY   28  24  85 E7        30.26F WCI  21
LE MARS        CLOUDY    30  28  93 SE5       30.24F WCI  25
ORANGE CITY    SUNNY     30  28  93 CALM      30.23F
SHELDON        SUNNY     30  30 100 SE7       30.22F WCI  23
SIOUX CITY     CLOUDY    29  26  89 SE7       30.26F WCI  22
SPENCER        SUNNY     31  28  89 VRB6      30.25F WCI  25
STORM LAKE     SUNNY     32  28  86 S7        30.25F WCI  26
$$

ABBREVIATIONS USED IN REMARKS
   TC - TEMPERATURE IN CELSIUS
  WCI - WIND CHILL INDEX
   HX - HEAT INDEX
  VSB - VISIBILITY





USA.gov is the U.S. government's official web portal to all federal, state and local government web resources and services.